Theta_e
346 346 346 341 341 341 342 341 338 336 335 339 339 339 341 343 343 343 343 341 341 339 338 338 339 340 338 337 337 338 339 339 340 340 340 338 338 336 335 333 333 332 332 334 335 335 335 335 334 332 332 332 332 331 331 331 330 328 327 326 328 329 330 329 329 329 328 328 329 329 329 328 328 329 329 329 328 329 330 329 329 329 329 329 329
346 345 346 342 342 343 343 341 338 338 337 337 338 338 340 342 343 343 339 342 340 339 337 338 336 339 337 339 336 340 339 338 340 340 340 340 338 334 334 334 335 337 335 335 336 335 335 334 332 330 329 330 329 331 331 330 329 329 329 329 328 327 328 328 329 328 328 328 328 328 328 328 329 329 328 328 328 329 329 329 329 329 329 329 329
347 349 344 341 343 345 344 343 343 341 340 338 340 340 341 342 342 341 341 341 340 340 335 337 338 336 338 335 339 340 340 341 341 341 339 338 337 336 335 334 335 335 335 335 335 334 332 332 332 332 331 331 330 331 330 329 329 327 328 329 327 327 328 328 327 328 327 327 328 328 328 327 327 328 328 328 328 328 328 329 330 330 330 330 329
345 345 346 343 342 343 344 342 340 343 340 339 338 340 340 342 343 344 344 342 341 341 340 339 338 335 336 336 339 339 339 341 341 341 340 340 338 337 334 334 335 334 334 334 333 332 332 331 333 333 332 330 331 331 330 329 328 328 327 326 326 327 328 327 327 327 327 328 328 327 327 327 327 326 327 327 327 328 328 329 330 330 330 330 330
347 347 345 343 343 343 343 341 342 342 342 341 339 340 339 339 342 344 344 343 342 342 340 341 340 339 339 339 341 338 341 341 341 340 339 339 339 338 338 337 336 335 335 334 332 331 330 329 331 332 331 329 329 329 329 328 329 328 327 327 327 326 325 326 327 327 328 328 327 327 327 327 327 328 328 328 328 328 328 328 329 329 329 329 330
342 345 345 344 343 343 342 341 342 343 342 342 340 339 337 338 338 340 339 340 340 342 339 339 337 339 339 340 340 342 341 339 339 340 339 339 339 340 340 340 335 335 334 337 336 334 332 333 333 332 331 330 329 330 329 329 328 328 327 325 327 326 327 328 327 327 327 326 327 327 327 327 327 327 327 327 327 328 328 328 328 329 329 329 329
344 343 343 346 344 342 342 342 343 343 341 342 341 340 339 338 336 336 338 337 338 340 337 337 336 335 337 340 338 339 341 339 339 340 339 340 340 340 339 336 337 339 335 334 337 335 333 333 333 331 329 329 329 330 330 328 328 328 328 328 326 327 328 328 328 327 328 327 327 327 327 327 327 328 328 328 328 328 329 328 328 328 329 329 329
343 346 343 346 345 342 343 344 344 342 340 341 340 338 338 339 338 337 333 334 335 336 337 336 336 336 338 339 341 340 338 338 339 339 340 339 338 339 339 338 339 339 341 341 334 335 334 333 332 329 328 328 330 331 330 329 329 330 329 327 327 325 326 326 326 326 326 326 326 327 327 328 328 329 329 329 329 329 329 330 329 329 328 328 328
344 340 341 345 345 345 345 346 345 342 340 340 340 339 339 338 339 338 337 334 333 334 335 336 337 336 337 338 339 339 339 338 339 339 341 339 339 339 338 338 338 338 340 339 336 333 334 332 331 330 330 331 331 331 331 331 330 329 327 327 327 327 326 326 326 326 326 326 326 327 327 328 328 329 330 330 329 329 329 329 329 329 329 328 328
341 342 340 343 346 346 344 345 345 343 341 340 340 340 340 340 338 339 337 336 333 335 334 336 335 336 338 338 339 337 338 339 340 338 338 339 339 337 337 340 338 338 339 339 338 333 333 333 331 333 334 335 334 332 332 332 331 330 329 328 328 328 327 326 326 327 327 327 326 327 327 327 328 329 329 329 328 328 328 329 329 329 329 329 329
340 341 342 345 345 344 343 343 342 344 342 339 339 338 339 341 341 340 339 338 336 336 337 335 336 337 337 338 341 341 340 342 341 338 339 339 338 335 339 338 339 339 338 338 339 341 332 331 331 333 333 333 333 333 333 333 333 333 332 330 329 329 329 328 328 327 327 327 328 328 327 328 328 329 328 328 328 327 328 329 329 330 330 330 329
341 342 344 344 344 343 340 338 344 342 341 338 336 335 338 340 341 340 338 338 337 337 339 337 338 337 336 337 338 339 339 338 338 339 338 337 337 336 336 337 339 339 339 338 338 336 338 334 336 335 335 335 335 335 335 334 335 334 334 332 330 330 329 328 329 328 327 328 328 329 329 329 329 328 328 328 328 329 330 330 331 331 330 330 329
345 344 342 342 343 344 342 343 340 341 340 340 340 338 341 342 341 340 336 334 335 338 338 339 336 334 336 336 334 336 338 338 337 337 337 338 338 335 336 337 338 337 337 338 339 337 336 338 339 338 336 336 335 335 334 334 333 334 334 334 333 332 330 330 330 328 327 328 328 329 329 328 328 328 329 329 330 330 331 331 330 329 329 329 329
344 342 343 342 343 343 341 344 338 339 338 338 340 340 341 342 341 338 337 334 334 337 339 338 334 332 330 327 331 332 334 336 334 333 338 337 338 336 336 337 338 338 338 337 337 337 337 338 339 341 338 339 335 335 335 334 334 334 334 334 334 334 331 331 330 330 329 328 329 328 328 328 329 330 330 330 330 331 331 331 329 329 329 329 330
343 342 342 344 340 338 337 342 339 339 337 335 339 342 342 342 341 338 335 337 335 339 341 338 331 332 333 327 323 324 330 333 335 337 335 336 336 335 336 337 337 337 336 337 335 339 336 338 337 338 340 340 339 339 338 335 335 334 333 333 334 335 334 332 331 332 331 329 330 330 329 329 329 330 330 331 331 331 331 330 329 329 329 330 330
343 342 343 340 338 338 336 334 339 339 337 336 339 341 342 342 340 339 338 333 331 338 341 340 336 332 324 324 323 324 319 323 327 332 337 336 336 334 336 338 338 337 337 335 334 336 336 337 336 336 336 338 337 337 339 338 335 334 333 332 334 334 336 334 332 333 333 331 331 331 329 329 329 330 331 331 331 331 331 329 328 328 328 328 328
341 341 341 339 339 340 337 337 338 338 338 337 337 338 341 342 340 340 338 334 331 335 338 340 339 336 331 325 324 322 321 325 328 329 334 333 335 336 337 337 339 337 337 334 338 336 335 335 336 336 337 339 337 335 339 337 336 336 333 333 333 334 334 335 334 334 334 333 332 331 329 329 330 330 331 331 331 331 330 329 328 328 328 328 327
340 341 340 340 339 340 337 335 337 337 337 337 335 340 341 339 340 341 341 340 338 334 333 338 340 337 336 336 332 324 323 326 325 321 332 335 335 336 337 336 336 337 338 335 335 335 336 337 337 336 338 337 338 337 335 338 338 339 336 333 332 333 334 334 334 333 335 334 333 332 330 330 330 331 331 331 331 331 330 328 327 326 326 326 326
339 339 339 340 340 339 338 337 337 337 337 334 334 339 340 338 342 342 341 338 336 330 331 334 338 338 336 336 335 336 334 328 323 326 322 328 331 332 332 335 336 336 335 334 335 337 336 336 336 335 338 338 340 339 337 335 334 336 335 333 331 329 329 329 333 335 337 336 334 332 332 332 332 332 331 331 331 330 329 328 327 326 325 325 325
341 340 340 339 339 339 339 337 336 337 336 336 334 341 343 342 341 341 340 339 337 332 332 334 331 330 334 334 334 337 331 331 332 326 324 322 323 331 333 335 333 335 335 333 334 334 334 335 334 336 343 335 336 339 337 338 338 336 334 328 329 328 328 329 329 328 334 334 335 333 334 333 333 331 332 331 330 329 327 327 325 325 325 325 325
338 339 338 338 338 339 338 338 336 336 337 336 337 337 343 344 344 341 341 339 337 336 334 332 333 332 331 332 334 332 332 332 330 330 325 321 322 324 327 332 334 333 334 335 335 338 336 335 335 334 338 335 336 338 338 336 339 335 331 325 328 327 327 326 322 320 321 333 333 333 333 333 333 333 331 330 328 327 327 325 323 324 325 325 325
337 337 337 338 339 337 336 337 337 337 337 338 336 337 341 342 343 341 340 338 337 336 334 335 333 334 334 333 330 332 329 330 332 330 328 327 322 323 325 325 324 330 332 333 333 334 334 336 335 333 333 336 334 341 335 336 336 334 328 324 327 327 328 326 318 320 319 323 332 332 333 333 333 333 331 329 328 327 325 324 323 323 324 324 323
337 337 339 339 337 338 337 336 338 338 335 336 337 338 341 340 340 339 337 336 338 337 337 336 334 333 334 334 333 329 328 328 329 329 327 325 324 325 327 326 325 326 330 333 333 332 332 334 333 333 334 334 334 333 334 335 333 329 323 322 325 327 327 321 317 317 319 327 330 333 332 333 333 332 329 328 328 326 324 323 323 322 322 322 322
336 336 339 339 338 337 336 338 336 335 337 336 336 337 338 340 339 338 336 337 337 337 337 334 332 333 332 335 331 333 334 332 332 330 329 326 325 324 324 327 326 327 328 332 332 331 331 332 332 333 334 334 334 334 334 334 331 323 328 323 324 325 325 323 319 318 317 324 327 332 331 333 332 329 328 328 326 324 324 324 323 322 321 321 321
334 334 336 337 337 337 337 338 335 336 338 338 338 338 338 337 336 335 335 335 336 337 335 334 333 334 335 335 335 335 334 334 334 331 331 330 328 325 324 326 323 324 326 328 327 331 331 330 331 333 333 333 333 333 332 333 332 328 327 324 323 323 325 328 325 320 319 318 323 328 332 330 329 328 328 326 325 325 325 326 321 318 320 321 323
334 335 336 337 337 337 338 338 337 337 336 336 337 338 338 337 336 337 335 335 338 337 337 336 336 336 336 333 335 334 335 335 332 332 331 329 327 326 324 324 325 324 328 326 328 326 328 330 332 332 332 333 333 333 331 330 332 323 323 328 323 320 321 324 326 322 318 316 316 321 325 327 328 327 326 325 326 325 320 315 316 316 313 314 317
336 337 338 338 338 338 338 338 338 338 337 337 340 340 338 337 337 334 334 337 337 337 337 336 334 335 335 336 335 334 333 334 332 332 333 332 329 329 327 321 321 324 322 324 325 327 327 330 331 331 331 333 334 333 331 329 327 323 323 330 330 316 318 322 326 324 320 316 314 314 317 320 321 321 321 319 316 315 318 319 317 314 315 315 319
337 337 339 339 339 338 339 338 337 336 335 337 337 338 338 338 336 336 333 335 335 335 337 335 334 337 335 336 337 333 335 334 334 333 332 333 331 330 329 326 320 317 322 320 323 324 328 326 330 331 330 332 333 333 329 327 328 322 323 331 329 325 315 318 323 324 321 318 316 313 313 314 314 315 315 316 318 319 320 321 317 315 313 318 321
337 337 337 338 338 339 338 339 338 338 337 336 336 337 338 337 335 334 334 339 337 337 336 337 337 336 335 338 335 335 337 336 335 336 334 335 333 332 330 327 326 321 319 318 321 323 326 328 324 328 330 331 332 332 330 329 326 326 331 331 328 329 317 317 317 318 318 317 317 316 314 315 316 316 319 319 321 322 320 317 317 316 316 321 320
335 337 337 338 338 338 337 337 337 339 339 337 335 336 336 336 335 335 335 338 338 339 339 335 333 338 337 335 336 335 336 337 335 338 338 336 334 331 331 329 329 324 324 319 320 324 324 328 328 326 329 330 331 331 328 329 324 326 327 328 328 329 314 315 314 313 313 315 312 311 311 313 316 319 321 319 321 320 316 315 315 315 317 320 319
335 336 337 337 337 337 338 337 338 338 338 338 337 337 335 334 335 333 336 338 338 334 334 334 334 336 335 334 337 336 336 337 339 339 338 336 335 332 331 331 330 329 325 323 321 324 327 325 327 329 328 330 330 331 328 326 323 324 327 326 328 319 316 317 313 313 313 313 310 311 314 314 314 317 318 320 321 320 317 318 317 317 319 320 319
334 335 337 337 335 336 335 338 336 335 338 338 337 335 334 333 333 334 335 336 333 331 331 332 331 333 336 333 336 335 337 336 336 336 337 336 336 336 333 331 330 333 329 327 323 323 332 328 326 327 329 330 330 329 328 324 321 320 328 325 324 318 322 324 312 313 313 312 311 316 321 317 314 318 319 320 320 320 320 319 319 319 319 316 314
333 333 336 337 337 334 334 333 335 335 335 336 334 334 330 330 334 334 335 335 332 331 332 330 333 336 334 333 334 335 336 335 335 336 334 334 334 333 333 331 329 331 329 327 323 324 329 331 329 326 328 330 328 329 327 326 320 320 321 323 321 319 316 320 321 311 311 311 310 312 313 310 311 319 319 317 318 319 317 315 316 315 314 312 311
332 331 334 336 338 335 333 336 334 336 335 333 333 331 331 333 333 333 334 332 331 332 332 331 332 334 336 333 333 334 333 334 334 333 333 332 332 330 331 329 328 329 330 327 324 326 326 328 326 327 326 329 326 329 327 324 318 316 319 322 321 315 314 318 316 321 309 310 310 310 311 310 309 312 312 309 310 312 312 311 310 309 312 308 305
334 335 334 333 336 336 334 336 335 337 336 335 335 333 333 332 332 333 333 332 330 330 330 330 332 334 335 334 333 334 335 335 336 335 334 332 331 330 329 329 327 329 329 330 326 324 324 324 326 325 326 326 327 326 327 325 317 314 316 319 315 312 316 319 315 317 307 308 307 308 309 309 308 308 308 309 308 308 309 309 308 307 306 307 304
333 336 336 336 336 336 334 333 334 335 336 337 336 335 335 332 332 332 331 331 330 329 329 329 329 331 332 333 333 335 335 333 334 333 334 333 331 331 330 332 331 329 329 330 325 326 326 322 324 322 325 325 324 326 325 324 317 314 315 318 316 314 315 315 317 314 311 307 307 307 307 308 307 306 306 306 307 307 306 306 307 306 305 305 305
333 334 335 335 337 335 332 330 332 333 336 335 336 335 334 335 334 333 333 331 330 330 331 330 330 329 332 332 332 334 334 334 332 331 332 332 330 331 330 329 329 330 331 328 329 327 324 321 322 322 323 322 321 321 321 320 318 317 316 316 316 314 313 314 315 314 309 306 306 306 305 305 304 304 304 304 305 305 304 304 305 305 305 305 304
332 333 333 335 334 334 333 331 333 332 330 331 334 333 334 335 335 334 334 334 332 331 331 331 330 330 331 332 335 334 333 332 331 333 333 332 331 330 329 329 328 329 328 327 327 323 321 320 319 318 320 316 316 320 320 320 318 315 314 315 315 314 312 313 313 312 312 311 311 311 306 304 303 302 304 304 303 302 303 304 304 304 304 304 303
330 331 333 332 335 334 333 333 332 332 333 334 337 336 336 333 335 334 334 332 331 331 331 330 332 332 332 334 334 333 333 332 333 332 332 333 331 330 331 329 329 327 327 327 326 321 320 318 317 319 317 316 318 316 317 320 318 316 314 314 313 312 314 313 313 313 312 310 308 304 306 306 306 305 303 301 301 303 303 302 303 304 303 302 301
329 329 330 331 332 333 334 333 333 332 330 331 333 335 336 336 336 335 334 333 330 329 330 331 330 330 334 333 335 334 332 333 332 332 333 332 330 327 326 328 325 327 327 326 327 322 320 319 317 318 318 316 318 318 316 316 315 313 314 313 311 312 314 316 317 315 314 314 313 310 307 306 305 305 302 302 301 302 302 302 302 303 303 301 300
326 330 331 330 330 330 333 334 332 333 332 332 332 332 334 335 334 333 334 332 331 330 330 332 332 334 333 335 334 333 329 327 317 320 322 324 329 329 330 328 326 330 330 326 325 323 321 320 319 321 318 318 318 317 315 314 314 313 315 315 314 314 314 315 316 318 317 315 316 315 312 312 310 311 310 310 309 304 304 303 305 303 302 301 300
318 322 326 329 330 329 330 331 331 331 332 332 326 315 315 330 334 332 333 332 332 331 330 330 332 333 334 334 334 328 323 320 315 308 307 311 320 329 331 330 328 329 330 329 325 324 322 319 319 319 318 318 318 320 318 318 319 319 317 317 314 314 315 315 317 318 318 319 318 317 317 315 316 316 315 314 315 312 313 310 315 311 303 301 301
315 317 319 320 323 328 329 328 328 332 332 331 314 306 308 310 328 334 334 333 330 330 329 329 330 332 333 333 333 329 323 320 315 305 306 305 308 314 313 317 322 333 329 328 325 325 325 322 328 323 319 319 320 321 320 319 320 318 316 317 316 317 315 313 312 318 323 322 320 320 323 327 325 321 323 324 320 318 312 308 301 302 301 300 300
311 312 313 314 316 318 321 324 327 329 327 307 301 304 303 305 310 331 332 330 328 330 331 330 330 333 332 331 332 333 333 332 329 322 312 304 305 306 307 308 299 296 304 328 328 327 325 324 321 324 323 322 321 321 320 320 319 319 319 318 316 315 315 314 315 316 324 326 324 322 321 324 325 323 321 319 314 314 309 302 299 299 300 300 300
309 308 308 309 310 313 316 317 320 325 323 296 294 295 296 299 300 312 331 330 328 328 330 330 330 332 331 330 332 333 332 330 330 330 328 319 304 301 304 305 298 299 302 303 303 329 329 326 325 324 324 324 323 320 323 323 324 320 319 317 317 317 317 316 320 322 322 329 325 321 319 322 326 324 319 318 313 310 307 301 299 299 300 300 299
308 306 306 305 306 307 309 312 315 316 308 296 292 294 295 294 295 300 326 329 328 327 329 330 331 333 334 332 329 332 332 334 333 333 332 329 324 323 326 330 328 314 300 303 304 301 313 327 327 326 327 325 326 326 327 327 323 319 318 317 319 318 318 319 320 322 325 326 322 320 318 322 324 323 318 320 316 311 308 302 299 299 299 299 299
305 304 304 303 303 303 304 306 309 311 307 293 291 292 294 294 293 297 321 327 328 328 330 331 331 330 332 331 332 331 331 331 333 328 329 330 328 328 328 328 325 318 316 316 317 320 327 328 330 328 326 326 327 326 327 327 325 323 323 322 323 324 324 323 324 323 324 323 323 321 314 318 321 318 318 318 313 309 307 299 299 300 299 299 298
305 304 304 303 302 301 302 302 303 304 306 294 291 291 293 294 296 315 321 325 326 328 330 329 330 330 330 332 331 328 330 331 319 311 319 331 328 327 325 318 316 311 303 297 295 297 306 317 323 320 314 309 306 313 317 331 333 331 328 329 329 326 324 320 318 319 318 320 320 318 315 315 319 315 314 315 311 308 307 306 299 300 300 299 298
303 303 302 302 302 301 301 300 299 301 303 297 291 291 291 292 304 318 319 322 325 324 323 329 330 321 318 321 325 329 329 328 310 305 307 311 327 325 320 317 314 312 309 304 297 295 295 295 294 294 295 296 297 298 298 299 310 325 325 322 320 320 315 314 315 318 315 315 314 313 313 308 312 312 314 314 313 310 309 308 308 300 299 300 299
302 302 303 302 302 301 300 299 299 299 300 298 292 291 292 292 303 318 320 322 323 322 324 329 324 321 312 302 313 328 331 323 298 303 303 319 327 324 321 316 314 311 311 312 312 307 297 297 297 297 298 299 300 300 299 300 303 312 321 315 318 318 315 313 310 315 314 313 309 313 308 304 311 313 310 310 310 312 312 311 311 306 299 298 298
302 302 302 301 301 300 300 300 300 298 298 298 293 291 292 292 304 317 320 323 322 323 323 322 321 320 315 307 299 302 310 301 293 298 302 314 324 321 320 317 313 312 313 314 314 315 316 315 314 313 310 308 313 314 312 301 303 309 318 317 318 316 313 312 312 311 309 310 312 313 305 310 310 311 309 306 304 308 312 311 309 309 309 307 304
Wind_Speed
7 7 6 7 8 8 7 7 8 9 10 8 8 8 8 7 7 7 6 6 5 4 3 3 3 3 3 4 2 3 2 2 3 3 5 6 6 8 6 5 4 4 5 5 7 6 7 8 9 7 8 8 7 8 8 9 8 7 6 7 8 8 9 10 10 10 10 10 12 12 12 12 13 12 13 13 13 14 14 15 15 16 16 16 16
6 6 7 7 7 7 7 7 7 7 8 8 8 8 8 7 7 7 7 5 5 5 4 4 5 4 4 3 3 3 2 1 2 3 4 4 6 7 5 4 4 3 3 6 7 8 8 8 7 6 7 6 8 9 9 8 8 8 8 7 7 8 9 9 10 10 11 11 11 12 12 13 14 14 14 13 14 14 13 14 15 15 15 15 16
4 4 6 7 6 7 7 7 6 6 7 7 6 6 7 7 7 7 6 6 5 5 5 5 4 5 4 4 3 3 3 2 3 3 4 4 5 6 8 5 4 4 5 4 7 8 6 6 7 8 7 7 8 9 8 8 8 7 8 8 7 8 8 9 9 9 10 11 11 11 13 13 13 13 13 13 13 13 13 15 15 15 15 16 15
4 4 5 6 7 7 7 7 8 7 7 7 7 7 7 7 7 6 5 5 5 5 5 4 5 4 4 5 3 3 2 2 3 3 4 5 4 6 8 8 5 6 7 7 6 6 7 6 8 7 8 7 9 8 8 8 8 8 7 8 7 8 8 8 8 9 10 10 10 11 12 13 14 14 14 14 13 13 14 15 15 15 15 15 16
4 6 6 6 5 6 7 8 8 8 8 8 7 7 7 7 7 6 5 6 5 5 5 4 4 2 2 4 3 4 4 4 3 4 3 4 4 4 6 7 8 7 7 7 6 5 5 3 6 7 6 5 6 7 8 8 9 9 8 8 8 7 6 8 9 9 9 10 10 11 11 12 13 13 13 14 14 13 13 13 13 14 14 15 16
4 7 6 5 7 7 7 7 7 8 8 7 7 7 7 8 8 7 7 7 7 6 6 5 5 3 3 4 3 2 3 4 3 3 4 4 4 5 6 5 6 6 6 8 7 7 5 6 6 8 7 7 7 8 8 8 8 9 8 6 10 8 8 8 8 9 9 9 10 11 11 12 13 12 13 12 13 12 12 13 13 13 13 14 14
2 5 7 5 5 6 6 7 7 8 7 7 7 7 7 7 8 9 8 7 7 7 6 5 6 6 5 4 4 4 3 3 3 3 4 2 3 3 5 7 5 4 6 6 7 7 6 7 7 6 5 6 8 8 8 6 7 8 9 8 7 7 8 8 9 9 9 9 9 10 11 11 11 12 12 11 12 12 13 12 12 12 13 13 13
5 3 6 6 6 6 6 6 7 7 8 8 8 9 8 7 8 8 8 9 8 8 7 6 6 5 4 4 3 4 3 3 3 3 4 4 4 4 5 5 7 6 4 2 6 7 6 7 7 6 6 5 6 8 8 8 8 8 8 8 9 5 8 8 7 8 9 9 10 10 10 10 10 11 12 12 11 12 12 11 11 10 10 11 11
3 5 7 6 6 6 5 4 5 7 8 8 8 8 8 7 7 8 8 9 9 9 7 6 6 6 5 5 5 4 3 2 3 4 2 4 3 4 4 6 7 4 5 5 6 7 8 8 8 7 7 8 7 7 8 8 8 8 7 7 8 8 7 7 8 9 9 10 9 10 10 10 10 11 11 11 10 10 10 10 9 9 10 11 11
4 6 10 10 6 4 5 5 6 7 8 8 8 8 8 8 8 8 8 8 8 8 8 6 6 6 5 6 5 4 2 3 3 5 4 4 3 4 4 4 6 6 6 4 5 6 7 8 8 5 6 5 5 9 8 9 9 9 8 8 8 8 7 7 7 7 9 9 9 9 9 8 9 10 10 10 9 9 8 8 8 8 8 9 9
6 11 10 7 6 4 4 6 9 6 8 9 9 9 9 9 9 9 8 8 7 7 7 6 6 5 5 6 3 2 2 1 2 5 5 5 4 5 4 4 5 6 7 5 4 1 8 7 7 6 6 6 4 6 8 8 9 9 10 9 9 8 8 9 8 8 8 9 10 9 8 8 8 8 8 8 7 7 8 7 6 6 6 8 8
11 11 7 7 6 2 5 11 8 9 8 8 9 9 10 10 10 10 9 8 8 7 7 6 6 6 5 4 4 2 2 1 4 6 4 5 4 5 4 5 3 5 6 5 6 4 1 7 6 6 6 8 7 7 6 5 3 6 11 10 9 9 9 8 9 9 9 9 9 10 9 8 8 8 7 7 7 7 7 8 8 7 7 8 7
6 5 7 6 7 9 10 5 6 7 7 7 8 9 9 9 8 8 10 10 8 8 7 7 7 5 4 5 2 2 3 5 4 6 4 4 5 4 5 4 3 3 3 6 6 8 5 5 6 5 6 7 7 8 7 6 6 3 9 10 10 10 10 9 10 10 9 10 10 9 8 7 6 7 7 7 6 6 7 8 8 8 8 8 7
4 4 4 8 6 7 7 4 2 5 4 7 11 7 9 9 9 8 9 10 8 8 7 7 6 8 7 3 3 4 6 7 7 9 7 5 3 4 4 5 4 2 3 3 6 6 5 7 5 5 5 6 7 7 7 7 6 7 5 6 8 11 11 11 10 11 11 11 10 8 7 7 7 7 7 7 6 7 8 8 7 8 9 9 9
6 5 5 5 2 5 7 4 4 5 3 9 12 7 8 9 8 8 8 8 8 7 7 8 6 5 5 6 7 7 6 5 7 7 7 5 5 6 4 5 5 5 5 5 3 4 6 6 5 5 4 1 1 4 6 7 9 12 10 7 6 5 12 12 11 11 12 12 11 9 8 8 6 6 6 5 6 7 8 8 7 8 9 9 10
6 6 5 2 4 4 3 4 7 4 6 7 9 9 8 8 8 9 8 8 9 6 6 6 6 8 8 7 6 8 7 9 9 8 7 6 6 6 6 5 4 4 2 3 4 5 5 10 8 8 6 4 3 2 5 4 10 12 11 8 8 8 10 12 13 12 13 12 12 11 9 9 7 6 7 7 7 7 8 7 7 7 9 9 10
7 8 8 8 6 4 6 6 7 7 7 8 10 10 9 9 10 8 9 7 9 4 4 5 7 7 5 5 4 7 7 6 8 7 8 8 8 7 6 6 4 2 2 4 3 2 4 5 5 5 6 9 8 8 5 5 8 8 9 10 10 10 9 12 12 12 12 13 13 12 11 9 8 6 5 5 6 7 8 7 6 6 7 9 10
7 7 8 7 7 5 6 9 8 7 7 5 8 9 10 10 10 8 7 1 2 4 5 5 6 7 7 6 3 2 5 6 9 6 8 7 6 8 7 7 5 5 3 2 4 4 4 5 5 5 5 3 4 5 7 5 4 3 7 8 10 11 11 11 12 11 11 13 13 12 12 10 7 5 4 4 6 7 8 6 5 5 7 8 9
8 7 7 7 8 7 7 7 8 7 6 6 10 12 8 10 7 5 6 3 3 4 5 7 6 7 7 8 8 5 3 6 8 6 7 6 6 7 6 7 7 7 4 4 4 3 3 4 5 4 4 5 4 5 5 6 8 7 6 12 11 10 10 8 9 9 11 12 13 13 12 11 8 6 4 6 8 9 7 6 5 6 7 8 9
6 6 6 7 8 8 7 8 9 7 7 8 11 10 7 8 8 9 6 6 7 6 6 6 7 9 9 9 10 8 8 8 7 8 5 8 8 7 7 8 7 6 7 7 8 7 6 3 5 5 1 2 4 2 5 4 6 8 7 11 9 7 7 9 6 10 9 10 11 13 12 11 9 7 8 8 9 8 7 6 6 7 7 8 8
9 8 5 6 6 6 7 8 8 7 5 7 8 12 10 8 7 6 7 8 9 5 5 6 7 7 9 11 8 10 8 8 9 8 7 8 7 9 8 7 6 6 5 6 6 4 5 5 5 5 6 5 5 6 5 7 5 6 9 9 8 7 7 8 9 7 4 5 10 9 10 11 10 11 10 8 8 7 7 7 7 7 8 8 8
8 7 5 7 6 6 9 9 8 7 6 6 10 12 9 9 7 8 8 8 6 7 7 7 7 7 9 8 10 8 9 7 7 7 6 6 6 9 10 10 8 5 7 8 8 8 6 4 6 6 4 3 3 1 6 6 7 7 8 9 8 7 7 7 8 7 6 5 7 9 10 11 12 12 9 8 7 8 8 8 8 8 8 8 8
6 6 8 7 7 8 6 7 8 5 7 10 8 10 8 8 8 9 11 10 8 9 8 7 6 7 10 10 9 10 9 8 7 7 6 7 6 8 8 10 9 8 8 7 6 8 8 8 6 5 5 4 4 5 7 8 10 10 11 8 8 7 7 7 8 8 8 7 9 10 12 11 11 10 8 8 8 8 8 9 8 9 8 8 8
9 8 7 9 9 7 7 7 5 8 6 7 8 7 6 5 7 6 8 10 10 10 9 8 10 9 13 8 9 9 7 7 6 6 7 6 7 6 7 7 7 7 8 8 10 8 8 7 7 6 5 4 5 5 7 9 9 13 10 9 9 9 8 8 8 9 10 10 9 9 10 11 11 9 8 8 8 8 9 9 9 9 8 8 8
9 10 10 12 10 9 10 8 6 7 8 10 11 11 5 8 8 8 9 12 11 9 9 8 8 8 7 9 8 8 7 6 4 5 5 3 4 6 7 9 8 8 9 9 7 6 6 7 6 6 6 6 5 6 7 9 8 9 11 8 10 9 10 10 9 9 9 7 6 7 10 11 10 9 9 9 9 9 9 9 9 7 6 4 6
10 10 8 10 10 10 9 10 9 9 9 10 10 9 6 8 8 7 7 9 7 9 9 11 9 10 8 10 8 8 7 6 7 5 6 6 6 6 5 6 10 8 7 8 9 8 7 7 6 6 6 6 6 7 7 9 9 9 6 10 8 9 9 9 9 9 9 9 8 8 10 10 10 10 10 9 8 9 11 10 8 7 7 6 5
10 9 9 9 10 9 10 10 8 9 10 11 9 6 5 3 5 9 8 8 9 10 8 8 10 12 10 9 8 7 8 7 7 8 7 6 6 6 5 8 8 8 8 7 9 9 7 6 8 6 6 6 6 7 9 10 10 10 9 9 8 9 10 9 9 9 8 9 9 9 10 10 8 9 10 11 11 10 10 9 7 7 6 6 6
9 9 9 9 9 10 11 11 9 7 6 9 10 7 7 5 4 7 11 11 11 13 9 9 11 11 10 9 7 8 7 8 8 7 6 5 5 6 5 6 8 8 7 6 7 7 11 9 7 8 8 7 7 7 10 14 10 11 8 7 8 7 9 9 9 9 8 8 8 8 8 9 10 10 11 10 10 10 8 8 7 6 6 6 5
9 8 10 10 10 9 10 9 6 8 8 9 8 7 7 6 4 6 11 9 9 9 11 10 10 11 11 11 8 7 6 6 6 4 5 3 4 5 7 8 7 7 8 7 7 7 8 9 8 8 9 9 8 8 9 10 12 12 8 8 9 8 9 10 9 9 8 8 8 8 8 8 9 10 10 10 8 8 8 8 7 7 6 6 6
11 9 9 10 10 11 10 9 10 10 8 8 8 8 6 3 5 8 9 8 8 6 7 8 10 8 9 10 7 6 6 7 7 5 4 4 5 6 7 7 4 5 6 8 7 8 7 8 8 9 10 10 8 9 8 10 15 11 10 8 9 9 13 11 10 9 9 9 8 8 8 8 8 9 9 10 10 9 9 8 8 7 6 7 7
10 12 10 11 10 10 9 9 8 8 7 7 8 7 5 4 5 7 8 7 5 4 5 4 7 9 10 10 7 7 8 8 6 7 5 4 5 6 7 7 6 4 7 7 8 8 9 9 8 9 11 11 9 9 9 10 11 11 8 8 9 15 14 9 11 9 9 9 8 8 8 8 8 8 9 9 8 8 8 8 7 7 8 8 6
10 12 10 10 10 9 9 7 7 10 10 8 7 6 7 7 7 8 8 6 8 6 7 10 9 11 10 10 8 8 7 7 7 7 6 5 5 4 5 7 6 6 6 4 6 7 7 8 8 9 11 11 12 11 10 10 10 12 6 7 13 16 10 8 9 11 10 10 9 9 9 9 9 9 8 8 8 8 8 8 8 9 9 8 8
11 12 12 10 10 9 10 8 10 5 8 7 8 7 7 7 7 8 9 8 9 8 6 11 12 9 10 10 9 8 7 9 8 7 7 6 6 6 5 6 6 6 8 7 6 7 3 6 8 8 10 11 10 11 11 10 10 8 7 12 12 9 9 9 9 11 11 11 10 10 10 10 10 10 10 9 9 9 9 9 10 10 10 10 9
10 11 13 10 8 10 11 8 10 11 6 8 7 7 7 8 9 9 9 8 9 8 9 10 8 8 9 10 11 10 10 10 10 10 8 8 7 8 9 8 8 7 9 9 9 4 4 8 8 10 11 12 9 11 10 11 11 10 10 11 9 9 9 10 9 9 14 12 11 11 10 10 10 9 10 10 10 10 10 10 11 10 10 10 9
9 6 8 11 12 6 10 8 10 6 8 8 7 9 9 11 12 9 5 3 4 8 8 13 8 6 9 9 9 9 9 10 9 7 7 8 9 9 9 7 9 9 9 6 5 9 9 8 8 8 9 10 9 11 11 9 11 11 11 10 9 9 8 10 10 9 15 13 14 12 12 12 11 11 11 11 11 11 10 10 10 10 10 10 9
9 7 6 9 9 8 7 8 11 7 7 8 9 10 11 11 9 7 7 8 7 6 6 9 10 10 10 10 10 10 9 11 9 9 9 7 7 8 7 4 3 3 6 9 7 10 7 9 9 9 9 9 9 9 9 10 11 11 10 9 10 9 8 8 9 10 13 17 16 14 14 13 12 12 11 11 11 11 11 11 10 10 11 11 11
11 9 7 10 8 6 6 7 7 8 7 9 9 10 10 10 8 8 7 7 7 7 7 8 10 11 9 9 10 10 10 10 11 11 10 11 10 9 8 9 6 5 6 8 8 9 10 10 9 10 10 9 9 12 11 10 11 11 10 10 9 9 8 9 7 11 17 18 16 15 14 13 12 12 12 12 12 12 12 12 12 11 12 12 11
12 11 10 8 9 9 7 6 6 5 7 10 11 10 10 9 7 5 7 7 7 6 6 7 10 15 11 10 8 8 9 10 9 10 9 12 11 9 11 9 9 9 9 10 9 10 10 9 9 7 9 9 9 7 11 11 10 10 9 9 9 8 9 8 7 9 8 7 6 7 8 9 12 13 13 13 13 12 12 12 12 12 12 11 10
12 12 11 11 9 10 9 7 5 4 8 10 8 8 9 9 8 7 7 6 5 5 5 12 14 4 8 8 8 8 8 9 10 10 9 8 6 7 4 1 3 6 6 7 9 10 9 9 9 9 9 9 7 8 10 10 10 9 9 8 8 9 7 8 7 9 9 9 11 14 12 12 13 12 13 14 14 14 13 13 12 10 7 6 6
11 11 13 10 10 11 10 8 6 3 4 8 9 8 8 8 7 6 7 7 8 7 8 9 8 11 9 9 7 8 8 5 4 4 2 3 4 6 4 1 3 7 8 7 6 6 7 9 9 8 8 9 8 8 9 10 10 9 9 9 8 8 8 7 8 7 8 9 9 9 10 11 10 13 13 14 15 14 12 9 8 7 7 6 6
13 12 11 11 10 11 10 8 8 4 4 4 6 7 7 8 7 8 8 9 7 8 10 10 9 8 8 8 8 4 7 10 12 9 7 5 6 7 6 5 6 2 5 6 6 6 7 10 10 9 9 9 9 8 8 9 8 9 8 9 8 8 8 8 8 8 8 9 8 9 11 10 10 9 9 8 9 13 10 9 6 10 9 6 4
12 13 15 13 11 9 11 9 8 5 4 4 3 5 8 9 7 8 7 8 8 8 7 8 8 10 9 6 4 10 11 10 11 11 10 10 7 6 7 4 4 6 5 6 7 6 7 9 10 10 9 10 9 8 7 7 7 7 7 7 8 10 8 9 7 8 8 5 6 7 6 9 8 9 9 7 5 8 4 5 4 8 7 5 3
13 13 13 14 15 13 9 9 10 5 3 4 5 6 9 8 5 3 3 4 5 7 6 8 10 10 8 8 6 8 11 11 11 13 12 10 7 7 14 16 5 7 9 7 8 5 3 4 2 4 8 9 9 9 8 8 7 8 7 7 6 5 7 8 8 5 2 2 3 4 2 2 3 3 3 7 6 7 9 6 10 12 10 9 6
14 13 13 13 13 12 11 11 9 4 5 9 10 6 7 10 6 4 3 3 4 6 9 10 8 8 8 7 8 6 6 8 9 8 9 11 12 11 11 6 11 10 8 3 4 4 7 4 4 1 3 4 6 9 10 9 9 8 7 7 8 7 7 6 6 5 3 3 2 2 3 1 5 5 2 7 8 7 7 9 12 13 11 10 8
13 13 13 14 13 13 12 12 11 10 4 13 13 11 10 9 4 3 4 4 5 9 11 13 13 11 10 8 6 5 6 12 11 10 9 8 7 7 6 8 13 10 6 6 7 2 5 6 4 3 4 5 7 9 9 8 7 7 8 8 8 7 5 5 3 3 2 2 1 4 5 5 2 2 9 5 7 8 6 8 12 12 12 10 9
13 13 13 14 14 14 14 13 11 7 7 15 17 15 12 11 9 5 6 6 6 7 11 11 9 6 5 7 9 7 6 9 10 9 9 10 9 7 6 6 6 9 7 3 3 4 4 3 4 4 4 5 7 6 7 8 8 9 9 8 7 6 3 4 7 3 2 2 2 4 6 3 2 5 7 7 7 8 6 8 13 12 11 9 8
13 13 13 13 13 13 14 13 11 10 9 18 18 17 12 10 8 4 5 7 6 5 10 9 6 4 6 4 2 4 6 7 8 10 10 9 10 8 8 5 6 8 6 4 3 3 2 3 0 2 1 4 10 11 6 6 8 6 6 6 6 4 9 9 6 2 4 1 1 3 5 2 3 3 5 8 8 7 7 6 11 12 11 10 9
11 11 12 12 13 14 14 13 12 11 10 18 19 17 13 7 3 3 5 5 8 5 7 9 7 7 5 4 5 5 5 6 5 8 6 8 9 9 9 10 9 9 8 5 4 7 8 7 6 7 5 3 9 10 8 4 6 8 8 7 5 7 8 7 9 9 6 4 2 1 1 2 1 5 4 10 8 9 8 7 10 13 14 12 9
12 13 12 12 12 14 15 14 14 11 11 17 20 18 15 9 5 2 2 3 4 2 4 12 3 10 9 7 4 6 8 3 9 8 4 6 8 10 11 11 10 9 7 4 9 16 17 19 17 11 8 14 16 17 17 17 11 4 6 5 6 5 5 6 4 5 5 5 4 2 1 3 3 5 1 4 7 9 8 8 7 9 15 14 11
11 12 11 11 12 12 13 14 15 13 12 15 21 20 19 14 5 3 1 1 4 6 8 4 7 7 11 15 12 3 2 7 6 5 1 3 5 9 11 12 12 11 8 7 7 9 15 15 13 14 15 15 17 17 18 18 17 12 2 4 4 5 5 4 5 6 6 4 2 1 1 3 3 3 1 1 2 3 7 9 8 8 10 11 13
10 10 10 11 11 11 12 13 19 16 13 14 21 22 22 19 8 3 5 4 6 4 4 7 8 8 9 14 17 13 10 9 12 10 8 4 5 8 9 11 11 11 8 8 8 9 8 8 8 10 12 13 10 10 12 18 17 14 10 10 5 1 2 3 3 9 7 5 5 2 1 3 2 2 1 1 5 6 9 8 11 10 9 8 7
Wind_Direction
176 179 175 187 177 175 179 177 171 180 186 197 189 201 199 204 201 209 200 195 165 193 184 160 176 160 172 178 179 94 141 138 106 106 117 135 128 120 133 114 63 101 127 108 109 118 113 118 116 117 112 95 99 100 92 87 90 87 93 91 84 80 79 82 83 82 82 82 76 74 76 78 86 83 80 81 81 79 77 75 75 73 70 70 70
168 197 172 183 180 180 184 189 180 190 181 198 199 193 193 200 195 210 200 191 175 190 185 164 219 150 204 154 173 152 106 125 122 138 120 126 119 125 138 123 73 63 112 128 124 127 128 127 120 111 111 129 127 114 105 99 90 92 94 97 85 79 82 79 77 78 82 81 78 78 79 82 83 82 79 80 81 81 80 79 78 74 74 72 70
193 213 177 188 186 188 194 181 196 179 182 201 204 190 193 202 190 203 199 190 185 173 208 184 213 192 161 197 150 159 153 150 144 125 143 142 146 145 149 152 124 120 94 125 151 131 129 123 132 125 121 122 121 119 117 108 101 104 96 88 88 93 91 91 86 88 85 84 82 83 83 84 84 85 84 82 79 79 78 76 76 74 73 72 72
200 207 213 188 188 192 194 190 189 185 196 195 190 197 192 202 200 202 206 192 184 182 214 194 211 199 185 164 152 164 168 140 161 154 159 149 152 150 142 157 159 138 115 95 106 126 124 161 131 139 139 138 124 118 113 117 121 101 93 91 92 84 89 92 96 90 87 85 92 91 87 86 87 87 87 84 83 78 77 78 79 78 75 74 74
210 215 208 198 187 195 198 196 194 186 197 196 193 193 195 198 197 200 190 195 191 192 202 208 212 198 198 129 173 187 153 179 158 166 173 160 156 143 154 158 155 130 119 116 109 135 140 110 128 131 132 128 119 112 111 113 114 114 108 106 103 102 87 87 103 104 101 103 95 94 97 92 91 90 89 88 88 86 82 78 78 77 76 76 73
262 250 225 205 192 193 203 195 193 188 193 189 195 198 201 194 195 198 197 203 195 191 199 194 212 182 200 158 204 165 179 177 171 154 190 181 170 170 168 133 152 160 142 119 111 110 135 140 143 139 140 135 139 128 127 125 123 120 110 102 112 104 100 102 101 102 100 97 102 102 100 97 91 92 94 94 91 90 85 82 80 78 77 76 77
265 311 260 215 200 193 193 200 193 190 194 191 198 197 203 197 197 201 199 207 199 196 199 197 211 194 188 189 185 172 200 160 180 172 205 181 185 166 126 169 129 107 137 150 126 122 142 165 142 132 134 144 135 136 129 129 115 115 119 116 104 114 125 110 108 109 104 107 105 103 101 99 101 98 98 97 94 90 88 87 82 82 81 79 77
274 263 257 233 202 195 197 198 195 196 195 193 201 201 199 197 202 201 194 207 200 197 199 200 203 211 180 177 184 184 195 173 186 195 204 189 192 146 161 140 128 144 149 166 152 135 138 139 134 139 147 133 132 127 132 136 130 122 126 124 110 110 101 107 96 104 106 108 106 102 101 104 106 105 103 99 95 90 86 83 84 85 85 81 78
246 243 269 258 218 198 198 188 219 200 197 197 202 204 196 196 204 206 201 204 201 200 196 192 191 191 190 185 189 180 203 139 186 200 182 225 184 150 158 147 126 160 133 242 138 143 137 142 153 157 154 159 145 134 138 144 137 127 128 125 129 126 119 111 122 118 116 111 110 114 113 110 106 105 100 96 93 92 86 87 89 88 89 87 82
233 250 218 234 225 204 195 198 224 208 199 200 203 204 198 197 196 203 205 207 207 195 200 191 191 187 184 182 199 154 215 134 219 224 184 221 192 169 168 147 146 143 150 175 158 150 150 151 155 128 100 87 145 152 148 150 145 142 142 141 141 141 130 132 122 118 118 119 118 112 112 109 108 107 105 98 100 98 97 97 96 96 91 89 85
215 244 228 221 220 209 235 221 215 228 208 204 203 201 197 192 199 194 205 209 209 199 204 194 193 184 175 179 111 4 78 113 268 220 201 191 203 176 166 165 119 139 145 161 150 127 152 159 168 170 146 129 146 140 153 151 156 155 155 151 153 148 148 142 138 144 137 134 124 128 127 120 110 105 102 101 100 109 105 99 105 101 94 89 92
206 221 228 228 221 205 246 230 214 210 213 207 208 200 190 190 196 198 195 207 207 206 196 195 174 181 169 109 69 55 305 292 242 258 224 191 204 180 175 154 131 138 173 133 135 155 180 159 166 158 157 157 156 145 135 117 79 146 160 160 156 153 152 150 146 142 145 136 139 133 129 124 116 108 108 113 116 111 102 93 101 107 100 91 91
232 245 247 243 238 223 221 191 252 230 223 231 222 206 184 194 197 199 199 200 203 204 191 185 172 158 138 100 81 136 255 240 253 255 218 197 204 177 185 131 138 187 169 161 146 137 191 171 173 168 161 171 170 166 152 150 148 132 164 168 165 162 162 160 147 145 151 150 145 142 129 125 129 131 132 129 122 109 97 100 91 89 91 94 97
219 245 302 268 266 256 246 221 261 287 318 297 252 210 185 192 204 195 203 201 199 195 186 161 167 178 163 140 193 197 217 227 193 228 215 209 189 188 181 119 151 184 261 158 148 170 177 166 158 184 180 167 178 172 173 168 163 163 142 161 180 168 166 165 156 157 158 158 156 149 152 149 144 138 140 138 123 105 111 111 97 89 87 89 99
214 217 227 245 296 305 310 319 280 252 213 240 238 207 195 198 196 200 193 202 201 185 177 187 172 172 162 176 192 189 191 221 252 248 221 200 192 192 184 153 169 202 199 136 186 140 182 151 167 172 191 241 24 142 171 178 174 171 176 185 182 198 173 169 168 165 163 165 165 166 167 158 152 149 132 122 119 114 116 112 105 97 91 93 100
231 225 222 221 219 230 236 264 252 255 248 241 248 215 203 192 198 214 201 192 196 170 170 179 167 158 181 199 181 194 194 211 201 206 204 198 203 196 182 168 189 199 176 167 188 146 196 148 171 174 184 185 198 197 175 178 162 171 181 176 195 185 188 178 174 174 168 167 170 169 173 168 165 162 134 117 107 122 120 113 108 106 100 96 102
242 232 231 225 219 207 187 231 251 246 241 244 238 225 209 203 201 202 205 204 197 143 181 186 177 190 183 176 186 209 217 189 179 191 197 200 204 203 172 173 181 183 242 209 112 180 188 154 162 166 167 170 182 167 163 181 167 176 175 180 193 178 193 188 185 178 171 170 173 172 176 182 174 141 122 120 121 130 126 119 116 114 107 104 102
234 237 231 226 224 204 198 220 232 233 245 251 266 253 212 202 205 200 213 263 8 121 181 207 201 205 239 255 284 252 193 174 176 183 189 205 200 197 189 181 185 178 204 246 169 208 159 151 168 168 162 214 152 115 151 163 153 171 165 176 179 178 184 188 191 176 170 171 173 174 178 184 176 145 137 137 153 142 129 126 120 116 114 110 107
239 234 234 231 231 227 208 217 232 231 231 241 246 234 219 217 185 200 189 179 141 187 199 192 192 222 225 236 239 236 227 170 194 168 183 193 215 186 174 171 183 184 183 217 198 155 241 166 160 170 185 189 96 130 143 166 166 154 163 153 174 174 176 179 191 180 169 178 173 175 178 179 165 158 153 151 139 135 127 133 119 110 111 110 108
232 238 233 232 237 236 232 224 232 233 228 228 235 238 223 224 199 191 183 186 182 185 197 199 192 209 203 223 229 236 215 201 213 184 186 166 185 183 170 169 183 173 187 204 200 171 202 178 171 175 235 166 161 140 123 193 129 141 149 145 159 150 159 175 180 180 176 173 182 178 176 169 158 157 147 132 130 131 133 122 118 115 112 110 106
223 231 236 241 239 240 243 236 233 238 235 223 240 241 228 213 203 196 185 187 192 179 184 209 210 218 198 211 219 221 216 213 213 205 205 177 184 179 164 167 178 180 181 205 187 162 189 194 180 170 191 182 182 165 177 135 116 117 139 132 139 134 126 135 148 161 170 207 182 184 183 160 157 148 138 137 135 136 128 122 121 115 106 104 104
219 224 217 220 218 224 234 236 236 241 246 241 239 239 226 224 213 202 198 193 183 191 185 195 213 234 226 202 211 215 222 212 198 208 217 205 189 180 167 168 186 185 181 185 191 173 173 196 181 196 155 183 152 297 116 116 130 126 124 133 135 135 136 136 151 155 171 174 179 184 173 154 151 140 138 144 142 133 132 131 126 120 113 107 105
208 207 211 206 207 212 214 227 225 219 238 241 235 232 222 220 214 207 201 199 194 190 186 191 214 219 232 217 210 210 211 205 192 205 204 193 181 178 172 172 181 164 198 171 181 194 185 179 190 182 165 176 170 151 133 123 108 103 121 134 131 135 141 149 161 165 169 166 173 168 158 147 143 136 142 145 146 142 140 138 130 121 119 114 111
215 202 196 204 206 209 213 211 209 224 218 243 248 243 232 219 221 208 200 205 206 196 186 185 211 216 213 217 216 211 212 217 200 202 208 194 190 177 181 177 171 170 171 171 199 186 191 170 190 182 163 180 169 136 113 108 110 125 127 121 124 125 132 143 152 156 157 165 175 172 151 144 137 139 148 148 151 148 139 137 131 125 122 126 124
225 219 202 201 204 205 206 203 194 210 210 227 236 233 207 217 209 218 203 204 205 194 193 202 216 220 227 213 210 206 208 218 212 202 203 181 198 190 184 174 169 170 173 161 190 188 189 181 181 165 181 171 171 157 143 125 131 137 126 117 120 120 120 120 121 124 129 134 139 144 144 147 145 150 153 150 150 152 136 103 85 77 74 95 126
231 227 217 203 205 207 201 201 196 197 208 223 233 233 210 204 209 215 222 219 202 196 205 205 213 218 218 216 209 208 205 209 200 205 197 181 192 197 187 181 158 173 170 173 181 184 179 186 175 177 174 167 173 150 155 136 129 140 123 126 116 117 115 115 115 119 119 110 103 109 119 130 148 155 155 151 134 112 107 111 107 100 95 83 74
237 236 228 217 209 208 208 204 198 198 202 214 219 225 223 234 186 212 214 232 212 209 203 199 219 210 220 217 204 206 203 207 206 200 205 187 195 185 199 179 169 167 180 182 174 193 178 186 171 180 176 157 168 153 148 144 137 139 149 140 129 120 121 122 121 124 121 119 115 114 120 130 140 127 117 117 126 129 126 122 121 117 108 99 89
253 251 248 241 231 220 211 206 199 198 192 214 218 214 224 228 195 207 214 219 207 205 200 202 219 220 220 213 206 202 206 206 211 207 212 194 197 191 192 192 182 175 154 191 183 182 170 177 178 184 163 165 166 166 125 122 141 160 196 148 144 137 130 133 132 132 135 133 132 129 128 127 130 133 133 136 138 141 136 131 132 129 126 119 110
268 261 259 253 248 241 227 206 200 220 197 204 214 218 219 212 210 212 222 214 213 206 216 212 207 205 206 205 201 204 201 205 210 207 204 185 219 198 203 210 192 191 175 189 178 187 189 186 175 175 170 162 170 165 159 157 140 164 178 158 143 153 140 138 139 139 141 144 144 144 141 143 144 146 147 148 144 141 143 145 143 145 146 142 131
278 268 263 256 248 242 239 226 210 205 194 191 209 220 222 204 206 228 232 223 222 217 218 212 218 214 207 200 199 203 204 207 195 197 179 211 216 207 207 217 216 188 186 194 191 177 184 185 184 169 175 163 172 162 190 143 153 178 171 160 151 143 142 141 143 144 145 150 148 148 151 155 159 158 156 157 156 151 152 157 160 162 168 173 171
270 268 257 255 253 251 240 243 215 202 204 193 197 203 207 204 198 239 236 231 225 220 231 252 237 211 202 198 185 202 200 205 202 194 191 206 221 214 206 225 199 180 183 202 186 176 170 187 179 188 168 163 179 162 181 142 159 187 189 175 140 130 144 144 149 150 149 150 149 150 156 163 168 169 165 164 160 160 164 170 173 179 186 191 174
278 275 266 258 261 256 246 232 223 219 196 194 186 181 185 187 203 219 225 224 225 214 209 218 216 213 200 197 196 205 205 205 206 211 194 199 230 231 238 217 202 191 190 194 190 188 161 197 160 179 166 166 175 170 167 144 160 191 184 126 122 139 155 153 161 156 155 154 158 162 164 163 172 175 173 174 175 173 176 180 183 190 195 195 183
274 264 255 256 250 250 251 224 241 223 222 181 177 179 186 192 197 213 224 218 228 229 218 224 209 201 198 197 196 199 207 210 207 202 202 201 218 231 233 254 213 195 196 184 177 200 155 178 157 180 168 169 177 172 167 145 159 185 183 124 145 160 164 163 168 167 166 167 168 171 170 172 176 183 180 181 182 187 184 190 192 196 199 199 195
265 280 297 269 250 242 246 244 236 199 177 201 183 180 197 204 205 212 214 206 222 232 227 241 203 202 204 205 193 192 208 206 204 202 198 196 211 228 210 217 216 217 203 205 171 164 188 180 171 174 167 175 170 174 165 153 165 175 181 149 163 181 177 165 166 173 175 174 174 176 177 180 184 190 186 185 189 191 191 195 198 200 204 205 206
270 265 265 295 290 315 296 265 241 224 195 186 200 190 200 203 210 206 188 171 226 238 231 229 224 204 202 208 205 210 198 202 204 195 193 208 210 223 224 203 212 209 202 221 171 168 192 169 176 179 164 175 179 169 171 162 164 176 185 164 172 181 191 172 168 164 173 174 178 178 185 187 190 195 192 192 195 198 199 200 201 205 209 213 213
293 288 276 275 277 266 256 271 282 251 218 202 200 206 202 205 199 187 184 201 212 227 229 254 234 219 204 200 201 201 192 202 208 207 200 209 221 221 224 253 200 203 214 198 190 153 178 166 187 175 177 172 176 174 169 173 167 180 188 173 178 188 185 186 178 156 170 175 178 184 190 193 196 198 199 198 201 203 204 205 205 206 212 214 218
302 297 297 280 278 267 264 275 265 262 244 222 205 208 208 208 202 196 196 199 203 211 224 228 229 224 211 203 204 207 207 204 206 211 202 205 216 208 216 202 192 198 235 195 174 171 173 184 178 180 163 178 188 183 179 178 174 180 188 180 186 184 187 171 213 141 159 177 178 186 192 196 199 202 203 204 206 207 206 208 209 212 214 218 221
303 299 293 288 279 276 275 276 288 287 261 256 219 215 212 204 201 199 208 202 199 219 227 231 244 220 212 205 196 190 201 208 211 215 208 210 213 208 199 204 200 185 197 199 191 182 175 175 186 170 163 176 188 174 170 177 172 179 184 181 179 184 174 184 168 132 156 169 176 189 198 202 207 208 206 209 209 209 210 211 214 217 221 225 229
306 304 303 297 287 281 274 264 269 269 277 253 239 222 203 208 204 196 204 205 202 208 222 232 233 242 224 195 199 199 203 213 215 211 212 215 219 242 29 283 271 184 181 186 215 185 182 167 183 170 169 175 180 170 176 173 172 180 179 174 180 182 177 178 188 157 162 173 184 181 189 198 199 202 207 212 211 211 211 213 217 223 236 245 251
306 302 302 298 299 289 282 279 273 259 269 285 268 238 213 207 198 191 197 204 211 206 229 232 230 227 219 205 204 202 202 234 324 290 41 81 61 62 104 95 189 262 208 182 204 187 178 171 183 177 177 171 174 180 177 178 176 183 177 180 181 183 175 179 199 194 180 165 186 190 195 199 202 203 202 209 215 213 211 215 218 228 228 238 242
330 315 303 302 301 291 282 280 277 273 273 274 272 269 241 211 207 203 193 205 210 207 216 229 225 217 214 212 211 115 111 139 126 132 153 169 146 158 151 170 195 226 218 180 191 184 198 183 183 182 182 179 176 184 183 179 189 184 177 172 182 187 181 180 198 208 196 186 196 198 189 189 201 202 205 210 210 200 205 205 199 200 216 222 248
341 341 335 317 294 279 282 282 277 274 286 265 266 288 260 261 229 222 203 209 219 229 212 227 222 214 207 200 139 159 155 121 131 146 152 184 181 154 146 114 244 186 222 197 194 187 202 190 190 185 189 181 183 182 192 180 187 185 183 177 187 183 177 186 191 194 217 224 221 220 193 165 205 199 197 209 148 155 174 136 50 74 95 102 90
347 348 346 347 346 328 313 290 285 288 278 281 310 278 234 249 275 238 234 217 203 243 254 237 217 211 208 189 177 193 165 149 145 158 171 175 180 160 149 172 170 237 195 208 203 191 45 286 111 214 187 199 186 181 195 183 188 194 182 177 209 203 193 199 194 125 165 210 268 279 336 49 315 281 65 74 95 91 84 95 113 107 106 100 96
353 351 355 350 347 348 345 335 306 321 320 348 329 323 256 227 216 233 231 254 243 220 218 237 236 211 203 180 204 190 191 170 151 151 158 169 170 171 174 156 76 48 32 149 230 121 158 180 162 154 354 264 197 187 192 185 187 194 172 180 193 208 195 197 216 169 112 71 104 302 283 226 226 239 55 90 84 84 88 115 113 106 96 90 77
355 357 358 350 351 347 348 346 350 339 46 357 345 349 336 327 312 272 247 229 245 257 220 216 223 198 193 191 176 188 198 171 163 168 159 140 125 117 125 107 93 86 73 36 3 350 149 169 155 157 185 275 254 203 192 184 180 184 181 195 195 209 193 209 38 77 89 69 165 206 234 217 201 71 87 105 107 118 109 91 92 84 81 71 59
0 1 359 358 355 354 351 349 347 10 22 352 350 344 339 339 344 342 257 248 247 269 264 227 219 205 200 195 185 186 175 172 203 184 179 164 156 147 158 169 163 124 116 101 301 320 287 203 196 185 143 214 271 276 177 166 168 189 189 196 194 197 199 94 140 182 119 196 199 241 248 152 126 119 164 157 124 102 104 110 94 90 89 86 83
6 2 2 1 360 355 354 351 350 353 10 359 352 344 338 345 3 319 263 255 248 243 269 262 232 172 204 203 208 173 194 191 207 191 190 176 168 163 157 128 96 69 59 48 6 10 276 235 149 134 124 231 189 219 164 163 182 190 183 191 169 174 111 133 110 186 165 72 279 245 256 157 164 232 144 128 118 107 113 127 128 129 128 124 116
10 5 7 8 3 3 360 359 353 352 355 3 350 348 336 335 328 273 259 257 252 252 273 241 221 177 190 209 196 196 231 223 157 158 181 177 164 155 133 113 100 75 55 31 61 72 53 43 58 55 43 40 77 59 41 79 113 99 89 80 114 141 157 184 176 194 160 112 51 341 289 309 165 237 131 131 132 135 143 138 172 152 133 121 113
11 12 10 8 8 7 6 5 358 348 352 359 350 343 336 316 281 267 281 296 303 249 269 263 173 57 44 40 311 239 209 201 120 127 119 217 187 151 133 121 112 105 105 107 94 87 84 85 85 87 81 56 53 50 48 43 29 12 149 141 177 172 195 205 190 146 141 125 89 27 8 298 298 339 252 156 145 146 151 150 158 163 135 128 131
15 17 11 11 13 11 10 10 5 353 349 357 355 344 347 323 314 305 311 339 291 275 236 233 86 86 56 30 10 339 104 83 50 67 231 181 177 160 146 134 124 121 129 129 112 96 97 91 88 82 70 57 51 46 43 38 32 23 67 174 171 191 223 227 248 139 130 123 83 329 242 258 251 132 66 100 234 249 166 149 159 148 136 141 151
19 17 18 19 16 16 12 10 14 11 356 354 360 351 357 337 337 5 25 32 28 21 44 62 59 54 51 43 29 30 61 56 51 39 25 343 152 151 151 129 128 128 136 142 125 118 109 92 77 66 59 53 49 51 44 37 33 36 38 41 41 2 272 269 145 122 155 121 65 345 266 239 155 117 83 254 260 197 209 164 157 150 164 153 163